GW1330 Weather Reports


Display with metric or nautical units.
time (UTC)temp
F
wind
direction
speed
MPH
gust
MPH
rain 1hr
in
rain 24hr
in
rain mn
in
humidity
%
barometer
mb
20260504050427 44 54 0.0 0.0 0.00 0.00 0.00 70
20260504045924 45 54 0.0 0.0 0.00 0.00 0.00 68
20260504045420 46 54 0.0 0.0 0.00 0.00 0.00 68
20260504044916 46 54 0.0 0.0 0.00 0.00 0.00 65
20260504044414 46 54 0.0 0.0 0.00 0.00 0.00 67
20260504043911 47 54 0.0 0.0 0.00 0.00 0.00 66
20260504043408 47 54 0.0 0.0 0.00 0.00 0.00 62
20260504042906 48 54 0.0 0.0 0.00 0.00 0.00 63
20260504042402 48 54 0.0 0.0 0.00 0.00 0.00 61
20260504041858 48 54 0.0 0.0 0.00 0.00 0.00 60
20260504041354 46 54 0.0 0.0 0.00 0.00 0.00 65
20260504040850 46 54 0.0 0.0 0.00 0.00 0.00 66
20260504040348 47 54 0.0 1.0 0.00 0.00 0.00 65
20260504035844 48 54 0.0 0.0 0.00 0.00 0.00 62
20260504035342 47 54 0.0 0.0 0.00 0.00 0.00 60
20260504034838 47 54 0.0 0.0 0.00 0.00 0.00 63
20260504034336 48 54 0.0 0.0 0.00 0.00 0.00 62
20260504033833 49 54 0.0 0.0 0.00 0.00 0.00 60
20260504033331 49 54 0.0 1.0 0.00 0.00 0.00 58
20260504032827 48 54 0.0 1.0 0.00 0.00 0.00 58
20260504032325 48 54 0.0 0.0 0.00 0.00 0.00 63
20260504031821 47 54 0.0 0.0 0.00 0.00 0.00 65
20260504031319 47 54 0.0 0.0 0.00 0.00 0.00 64
20260504030815 47 54 0.0 0.0 0.00 0.00 0.00 64
20260504030312 46 54 0.0 0.0 0.00 0.00 0.00 63
20260504025808 47 54 0.0 0.0 0.00 0.00 0.00 66
20260504025306 47 54 0.0 0.0 0.00 0.00 0.00 66
20260504024802 46 54 0.0 0.0 0.00 0.00 0.00 65
20260504024258 46 54 0.0 0.0 0.00 0.00 0.00 65
20260504023755 47 54 0.0 0.0 0.00 0.00 0.00 64
20260504023252 47 54 0.0 0.0 0.00 0.00 0.00 64
20260504022748 47 54 0.0 0.0 0.00 0.00 0.00 65
20260504022244 47 54 0.0 0.0 0.00 0.00 0.00 64
20260504021741 48 54 0.0 0.0 0.00 0.00 0.00 62
20260504021238 48 54 0.0 0.0 0.00 0.00 0.00 63
20260504020735 48 54 0.0 0.0 0.00 0.00 0.00 62
20260504020232 48 54 0.0 0.0 0.00 0.00 0.00 60
20260504015728 49 54 0.0 0.0 0.00 0.00 0.00 58
20260504015225 49 54 0.0 0.0 0.00 0.00 0.00 60
20260504014720 50 54 0.0 0.0 0.00 0.00 0.00 58
20260504014217 50 54 0.0 0.0 0.00 0.00 0.00 56
20260504013715 50 54 0.0 0.0 0.00 0.00 0.00 57
20260504013212 50 54 0.0 0.0 0.00 0.00 0.00 57
20260504012709 50 54 0.0 0.0 0.00 0.00 0.00 57
20260504012207 51 54 0.0 0.0 0.00 0.00 0.00 53
20260504011703 51 54 0.0 0.0 0.00 0.00 0.00 52
20260504011200 51 54 0.0 0.0 0.00 0.00 0.00 51
20260504010656 51 54 0.0 0.0 0.00 0.00 0.00 56
20260504010152 51 54 0.0 0.0 0.00 0.00 0.00 51
20260504005649 52 54 0.0 0.0 0.00 0.00 0.00 52
20260504005145 52 54 0.0 0.0 0.00 0.00 0.00 48
20260504004644 53 54 0.0 0.0 0.00 0.00 0.00 48
20260504004140 53 54 0.0 0.0 0.00 0.00 0.00 48
20260504003637 54 54 0.0 0.0 0.00 0.00 0.00 49
20260504003133 54 54 0.0 0.0 0.00 0.00 0.00 46
20260504002630 54 54 0.0 1.0 0.00 0.00 0.00 44
20260504002128 54 54 0.0 0.0 0.00 0.00 0.00 47
20260504001625 54 54 0.0 1.0 0.00 0.00 0.00 47
20260504001121 54 55 0.0 0.0 0.00 0.00 0.00 47
20260504000619 55 55 0.0 1.0 0.00 0.00 0.00 47
20260504000116 56 55 0.0 0.0 0.00 0.00 0.00 44
20260503235614 57 55 0.0 0.0 0.00 0.00 0.00 43
20260503235111 57 55 0.0 1.0 0.00 0.00 0.00 41
20260503234609 57 54 0.0 1.0 0.00 0.00 0.00 42
20260503234106 58 55 0.0 2.0 0.00 0.00 0.00 40
20260503233603 59 52 1.0 1.0 0.00 0.00 0.00 38
20260503233059 59 44 2.0 2.0 0.00 0.00 0.00 37
20260503232556 59 49 1.0 2.0 0.00 0.00 0.00 36
20260503232053 58 49 1.0 2.0 0.00 0.00 0.00 38
20260503231551 58 56 0.0 0.0 0.00 0.00 0.00 39
20260503231048 59 57 0.0 0.0 0.00 0.00 0.00 38
20260503230544 59 56 0.0 0.0 0.00 0.00 0.00 37
20260503230042 59 58 0.0 0.0 0.00 0.00 0.00 37
20260503225538 59 56 1.0 3.0 0.00 0.00 0.00 37
20260503225033 59 49 2.0 5.0 0.00 0.00 0.00 37
20260503224531 60 42 3.0 5.0 0.00 0.00 0.00 36
20260503224029 60 339 1.0 5.0 0.00 0.00 0.00 37
20260503223527 60 52 3.0 5.0 0.00 0.00 0.00 35
20260503223022 60 40 2.0 3.0 0.00 0.00 0.00 34
20260503222520 60 21 3.0 5.0 0.00 0.00 0.00 35
20260503222018 60 57 3.0 5.0 0.00 0.00 0.00 38
20260503221516 60 60 2.0 5.0 0.00 0.00 0.00 35
20260503221013 60 33 3.0 3.0 0.00 0.00 0.00 35
20260503220509 60 66 3.0 5.0 0.00 0.00 0.00 36
20260503220006 60 346 3.0 5.0 0.00 0.00 0.00 35
20260503215503 60 55 3.0 6.0 0.00 0.00 0.00 36
20260503215000 60 54 3.0 3.0 0.00 0.00 0.00 36
20260503214458 60 22 4.0 6.0 0.00 0.00 0.00 36
20260503213955 60 51 2.0 3.0 0.00 0.00 0.00 37
20260503213453 60 58 2.0 5.0 0.00 0.00 0.00 37
20260503212949 60 56 3.0 5.0 0.00 0.00 0.00 35
20260503212447 60 43 3.0 5.0 0.00 0.00 0.00 36
20260503211944 60 45 4.0 5.0 0.00 0.00 0.00 37
20260503211441 60 57 2.0 6.0 0.00 0.00 0.00 37
20260503210937 60 40 3.0 5.0 0.00 0.00 0.00 36
20260503210433 60 57 3.0 3.0 0.00 0.00 0.00 36
20260503205928 59 349 7.0 9.0 0.00 0.00 0.00 35
20260503205426 60 58 3.0 6.0 0.00 0.00 0.00 34
20260503204922 60 343 3.0 5.0 0.00 0.00 0.00 36
20260503204419 60 50 2.0 7.0 0.00 0.00 0.00 35
20260503203916 60 317 4.0 10.0 0.00 0.00 0.00 34
20260503203413 60 55 1.0 5.0 0.00 0.00 0.00 39
20260503202910 61 56 3.0 5.0 0.00 0.00 0.00 34
20260503202409 60 56 2.0 3.0 0.00 0.00 0.00 37
20260503201907 60 47 1.0 3.0 0.00 0.00 0.00 35
20260503201403 59 62 2.0 3.0 0.00 0.00 0.00 37
20260503200901 60 66 4.0 6.0 0.00 0.00 0.00 37
20260503200356 60 3 5.0 6.0 0.00 0.00 0.00 35
20260503195854 60 43 3.0 6.0 0.00 0.00 0.00 38
20260503195350 61 30 4.0 8.0 0.00 0.00 0.00 35
20260503194848 60 44 2.0 5.0 0.00 0.00 0.00 37
20260503194343 60 57 2.0 6.0 0.00 0.00 0.00 37
20260503193840 60 349 2.0 5.0 0.00 0.00 0.00 38
20260503193336 59 55 2.0 3.0 0.00 0.00 0.00 38
20260503192832 60 58 2.0 6.0 0.00 0.00 0.00 39
20260503192327 59 29 2.0 5.0 0.00 0.00 0.00 37
20260503191824 58 7 2.0 3.0 0.00 0.00 0.00 38
20260503191321 59 347 2.0 5.0 0.00 0.00 0.00 37
20260503190817 59 54 5.0 5.0 0.00 0.00 0.00 36
20260503190314 59 57 3.0 3.0 0.00 0.00 0.00 35
20260503185811 59 51 2.0 7.0 0.00 0.00 0.00 37
20260503185307 59 354 2.0 7.0 0.00 0.00 0.00 36
20260503184802 58 53 1.0 3.0 0.00 0.00 0.00 35
20260503184259 58 31 3.0 6.0 0.00 0.00 0.00 35
20260503183754 59 55 3.0 7.0 0.00 0.00 0.00 35
20260503183252 59 52 2.0 11.0 0.00 0.00 0.00 35
20260503182749 59 32 2.0 3.0 0.00 0.00 0.00 37
20260503182248 59 54 5.0 6.0 0.00 0.00 0.00 35
20260503181745 60 42 1.0 3.0 0.00 0.00 0.00 33
20260503181242 59 29 3.0 5.0 0.00 0.00 0.00 33
20260503180738 58 11 3.0 5.0 0.00 0.00 0.00 35
20260503180236 58 56 1.0 3.0 0.00 0.00 0.00 38
20260503175732 59 25 5.0 6.0 0.00 0.00 0.00 36
20260503175231 58 54 3.0 8.0 0.00 0.00 0.00 38
20260503174726 57 12 1.0 7.0 0.00 0.00 0.00 37
20260503174224 57 44 5.0 13.0 0.00 0.00 0.00 36
20260503173719 56 337 3.0 7.0 0.00 0.00 0.00 40
20260503173215 56 22 3.0 6.0 0.00 0.00 0.00 37
20260503172712 57 51 3.0 5.0 0.00 0.00 0.00 39
20260503172209 55 16 2.0 6.0 0.00 0.00 0.00 42
20260503171705 56 73 5.0 7.0 0.00 0.00 0.00 36
20260503171203 55 57 1.0 7.0 0.00 0.00 0.00 39
20260503170700 54 343 4.0 6.0 0.00 0.00 0.00 38
20260503170157 55 34 5.0 6.0 0.00 0.00 0.00 37
20260503160118 53 12 4.0 7.0 0.00 0.00 0.00 41
20260503150548 53 37 4.0 5.0 0.00 0.00 0.00 40
20260503130938 48 61 0.0 3.0 0.00 0.00 0.00 49
20260503130436 48 34 3.0 7.0 0.00 0.00 0.00 49
20260503110823 42 25 1.0 3.0 0.00 0.00 0.00 62
20260503110320 42 68 1.0 2.0 0.00 0.00 0.00 62
20260503100246 41 83 0.0 2.0 0.00 0.00 0.00 62
20260503090206 42 110 2.0 2.0 0.00 0.00 0.00 60
20260503081636 44 148 2.0 3.0 0.00 0.00 0.00 58
20260503081133 44 142 2.0 2.0 0.00 0.00 0.00 58
20260503080629 44 257 3.0 5.0 0.00 0.00 0.00 58
20260503080126 44 264 1.0 5.0 0.00 0.00 0.00 57